FENGYUN 1C DEB

Satellite information

Favourite Embed

Satellite Type and Status

DEBRISIN ORBIT

Key statistics

Satellite FENGYUN 1C DEB at a glance.

Uptime

9616

Days in orbit

Revolutions

≈ 14.2

Per day

Orbit

SSO

Sun Synchronous Orbit

Inclination

98.7

Latest

Satellite identification and parameters

Extended collection of information and parameters for FENGYUN 1C DEB.

Object identification

Identified? True

Debris? True

Object name: FENGYUN 1C DEB

International designator: 1999-025ALA

Object number (NORAD): 30560

Object ID (CCSDS): 30560

Country: PEOPLES REPUBLIC OF CHINA (PRC)

Current information (Y/N): Y

RCS size: SMALL

Orbital parameters

Period: 101.636 minutes

Inclination: 98.659 deg

SMA: 7214.248 km

Apoapsis: 920.29 km

Periapsis: 751.935 km

RAAN: 245.2269 deg

Eccentricy: 0.01166828

Argument of periapsis: 132.4569 deg

Mean anomaly: 283.3447 deg

Mean motion: 14.16824959 rev/day

Mean motion (dot): 0.00000683 rev/day2

B* drag term: 0.00033864107 1/REarth

Two-line elements (TLE)

Creation date: Sept. 6, 2025, 2:09 a.m.

Reference frame: TEME

Reference center: EARTH

Epoch: Sept. 5, 2025, 11:08 p.m. UTC

TLE line 0: 0 FENGYUN 1C DEB

TLE line 1: 1 30560U 99025ALA 25248.96426586 .00000683 00000-0 33864-3 0 9990

TLE line 2: 2 30560 98.6590 245.2269 0116683 132.4569 283.3447 14.16824959959843

Live tracking on map

Real-time ground track for satellite FENGYUN 1C DEB.

In-orbit conjunctions

A list of the most updated potential collisions computed for object FENGYUN 1C DEB.

Target Orbit TCA Probability of collision Miss distance Type
METEOR 2-7 DEB LEO 2025-08-01 13:18:41 0.0006746886 43.0 (m) DEBRIS
THORAD AGENA D DEB SSO 2024-11-15 09:35:42 0.0001151892 600.0 (m) DEBRIS

Associated space launch

Chinese polar orbiting meteorological satellite

FENGYUN 1C DEB was lifted into orbit during the mission ‘Long March 4B | Feng Yun 1C’, on board a Long March 4B space rocket.

The launch took place on May 10, 1999, 1:33 a.m. from Launch Complex 7.

For more information about the launch, click the button.

Launch to space Long March 4B | Feng Yun 1C
Long March 4B | Feng Yun 1C

Agency: N/A

Status: Launch Successful

Launch date: May 10, 1999, 1:33 a.m. UTC

Rocket: Long March 4B

Launch pad: Launch Complex 7

Location: Taiyuan Satellite Launch Center, People's Republic of China

...

Latest news about this satellite

There are no fresh news available about this satellite. Check back as we update our databases every day.


Newsletter sign-up

Weekly statistics, charts and insights to help you stay on top of the space industry.